Time,TemperatureF,DewpointF,PressureIn,WindDirection,WindDirectionDegrees,WindSpeedMPH,WindSpeedGustMPH,Humidity,HourlyPrecipIn,Conditions,Clouds,dailyrainin,SolarRadiationWatts/m^2,SoftwareType,DateUTC
2013-07-20 00:02:00,63.0,60.0,-100.00,NW,316,0.0,2.0,90,0.00,,,0.27,0.000000,,2013-07-20 05:02:00,
2013-07-20 00:32:00,63.0,61.0,-100.00,WNW,303,0.0,3.0,94,0.00,,,0.27,0.000000,,2013-07-20 05:32:00,
2013-07-20 00:52:00,63.0,61.0,-100.00,WNW,303,0.0,3.0,94,0.00,,,0.27,0.000000,,2013-07-20 05:52:00,
2013-07-20 01:01:00,63.0,61.0,-100.00,WNW,303,0.0,3.0,94,0.00,,,0.27,0.000000,,2013-07-20 06:01:00,
2013-07-20 01:32:00,62.0,61.0,-100.00,WNW,303,0.0,1.0,97,0.00,,,0.27,0.000000,,2013-07-20 06:32:00,
2013-07-20 01:43:00,62.0,61.0,-100.00,WNW,303,0.0,1.0,97,0.00,,,0.27,0.000000,,2013-07-20 06:43:00,
2013-07-20 01:52:00,62.0,61.0,-100.00,WNW,303,0.0,1.0,97,0.00,,,0.27,0.000000,,2013-07-20 06:52:00,
2013-07-20 02:01:00,62.0,61.0,-100.00,WNW,303,0.0,1.0,97,0.00,,,0.27,0.000000,,2013-07-20 07:01:00,
2013-07-20 02:33:00,63.0,61.0,-100.00,NNW,333,1.0,3.0,93,0.00,,,0.27,0.000000,,2013-07-20 07:33:00,
2013-07-20 02:44:00,63.0,61.0,-100.00,NNW,333,1.0,3.0,93,0.00,,,0.27,0.000000,,2013-07-20 07:44:00,
2013-07-20 02:54:00,63.0,61.0,-100.00,NNW,333,1.0,3.0,93,0.00,,,0.27,0.000000,,2013-07-20 07:54:00,
2013-07-20 03:01:00,63.0,61.0,-100.00,NNW,333,1.0,3.0,93,0.00,,,0.27,0.000000,,2013-07-20 08:01:00,
2013-07-20 03:32:00,63.0,61.0,-100.00,NW,317,1.0,3.0,94,0.00,,,-99.99,0.000000,,2013-07-20 08:32:00,
2013-07-20 03:44:00,63.0,61.0,-100.00,NW,317,1.0,3.0,94,0.00,,,-99.99,0.000000,,2013-07-20 08:44:00,
2013-07-20 03:52:00,63.0,61.0,-100.00,NW,317,1.0,3.0,94,0.00,,,-99.99,0.000000,,2013-07-20 08:52:00,
2013-07-20 04:02:00,63.0,61.0,-100.00,NW,317,1.0,3.0,94,0.00,,,-99.99,0.000000,,2013-07-20 09:02:00,
2013-07-20 04:33:00,62.0,61.0,-100.00,NNW,333,0.0,2.0,96,0.00,,,0.27,0.000000,,2013-07-20 09:33:00,
2013-07-20 04:43:00,62.0,61.0,-100.00,NNW,333,0.0,2.0,96,0.00,,,0.27,0.000000,,2013-07-20 09:43:00,
2013-07-20 04:53:00,62.0,61.0,-100.00,NNW,333,0.0,2.0,96,0.00,,,0.27,0.000000,,2013-07-20 09:53:00,
2013-07-20 05:01:00,62.0,61.0,-100.00,NNW,333,0.0,2.0,96,0.00,,,0.27,0.000000,,2013-07-20 10:01:00,
2013-07-20 05:32:00,60.0,59.0,-100.00,NNW,338,0.0,2.0,98,0.00,,,0.24,0.000000,,2013-07-20 10:32:00,
2013-07-20 05:42:00,60.0,59.0,-100.00,NNW,338,0.0,2.0,98,0.00,,,0.24,0.000000,,2013-07-20 10:42:00,
2013-07-20 05:52:00,60.0,59.0,-100.00,NNW,338,0.0,2.0,98,0.00,,,0.24,0.000000,,2013-07-20 10:52:00,
2013-07-20 06:01:00,60.0,59.0,-100.00,NNW,338,0.0,2.0,98,0.00,,,0.24,0.000000,,2013-07-20 11:01:00,
2013-07-20 06:32:00,60.0,59.0,-100.00,NW,319,0.0,2.0,98,0.00,,,0.00,3.000000,,2013-07-20 11:32:00,
2013-07-20 06:43:00,60.0,59.0,-100.00,NW,319,0.0,2.0,98,0.00,,,0.00,3.000000,,2013-07-20 11:43:00,
2013-07-20 06:52:00,60.0,59.0,-100.00,NW,319,0.0,2.0,98,0.00,,,0.00,3.000000,,2013-07-20 11:52:00,
2013-07-20 07:01:00,60.0,59.0,-100.00,NW,319,0.0,2.0,98,0.00,,,0.00,3.000000,,2013-07-20 12:01:00,
2013-07-20 07:32:00,65.0,62.0,-100.00,NW,314,0.0,3.0,90,0.00,,,0.00,66.000000,,2013-07-20 12:32:00,
2013-07-20 07:52:00,65.0,62.0,-100.00,NW,314,0.0,3.0,90,0.00,,,0.00,66.000000,,2013-07-20 12:52:00,
2013-07-20 08:01:00,65.0,62.0,-100.00,NW,314,0.0,3.0,90,0.00,,,0.00,66.000000,,2013-07-20 13:01:00,
2013-07-20 08:32:00,69.0,61.0,-100.00,SSE,156,3.0,7.0,77,0.00,,,0.00,169.000000,,2013-07-20 13:32:00,
2013-07-20 08:43:00,69.0,61.0,-100.00,SSE,156,3.0,7.0,77,0.00,,,0.00,169.000000,,2013-07-20 13:43:00,
2013-07-20 08:53:00,69.0,61.0,-100.00,SSE,156,3.0,7.0,77,0.00,,,0.00,169.000000,,2013-07-20 13:53:00,
2013-07-20 09:02:00,69.0,61.0,-100.00,SSE,156,3.0,7.0,77,0.00,,,0.00,169.000000,,2013-07-20 14:02:00,
2013-07-20 09:32:00,73.0,59.0,-100.00,SSW,196,3.0,6.0,62,0.00,,,0.00,299.000000,,2013-07-20 14:32:00,
2013-07-20 09:43:00,73.0,59.0,-100.00,SSW,196,3.0,6.0,62,0.00,,,0.00,299.000000,,2013-07-20 14:43:00,
2013-07-20 09:53:00,73.0,59.0,-100.00,SSW,196,3.0,6.0,62,0.00,,,0.00,299.000000,,2013-07-20 14:53:00,
2013-07-20 10:01:00,73.0,59.0,-100.00,SSW,196,3.0,6.0,62,0.00,,,0.00,299.000000,,2013-07-20 15:01:00,
2013-07-20 10:33:00,77.0,59.0,-100.00,SSW,210,2.0,7.0,54,0.00,,,0.00,533.000000,,2013-07-20 15:33:00,
2013-07-20 10:44:00,77.0,59.0,-100.00,SSW,210,2.0,7.0,54,0.00,,,0.00,533.000000,,2013-07-20 15:44:00,
2013-07-20 10:53:00,77.0,59.0,-100.00,SSW,210,2.0,7.0,54,0.00,,,0.00,533.000000,,2013-07-20 15:53:00,
2013-07-20 11:01:00,77.0,59.0,-100.00,SSW,210,2.0,7.0,54,0.00,,,0.00,533.000000,,2013-07-20 16:01:00,
2013-07-20 11:32:00,76.0,55.0,-100.00,SW,214,3.0,7.0,48,0.00,,,0.00,522.000000,,2013-07-20 16:32:00,
2013-07-20 11:44:00,76.0,55.0,-100.00,SW,214,3.0,7.0,48,0.00,,,0.00,522.000000,,2013-07-20 16:44:00,
2013-07-20 11:52:00,76.0,55.0,-100.00,SW,214,3.0,7.0,48,0.00,,,0.00,522.000000,,2013-07-20 16:52:00,
2013-07-20 12:02:00,76.0,55.0,-100.00,SW,214,3.0,7.0,48,0.00,,,0.00,522.000000,,2013-07-20 17:02:00,
2013-07-20 12:32:00,78.0,55.0,-100.00,SSW,207,5.0,9.0,45,0.00,,,0.00,542.000000,,2013-07-20 17:32:00,
2013-07-20 12:43:00,78.0,55.0,-100.00,SSW,207,5.0,9.0,45,0.00,,,0.00,542.000000,,2013-07-20 17:43:00,
2013-07-20 12:53:00,78.0,55.0,-100.00,SSW,207,5.0,9.0,45,0.00,,,0.00,542.000000,,2013-07-20 17:53:00,
2013-07-20 13:01:00,78.0,55.0,-100.00,SSW,207,5.0,9.0,45,0.00,,,0.00,542.000000,,2013-07-20 18:01:00,
2013-07-20 13:05:00,80.0,52.0,-100.00,South,183,4.0,9.0,38,0.00,,,0.00,795.000000,,2013-07-20 18:05:00,
2013-07-20 13:37:00,80.0,52.0,-100.00,South,183,4.0,9.0,38,0.00,,,0.00,795.000000,,2013-07-20 18:37:00,
2013-07-20 13:47:00,80.0,52.0,-100.00,South,183,4.0,9.0,38,0.00,,,0.00,795.000000,,2013-07-20 18:47:00,
2013-07-20 13:59:00,80.0,52.0,-100.00,South,183,4.0,9.0,38,0.00,,,0.00,795.000000,,2013-07-20 18:59:00,
2013-07-20 14:05:00,82.0,54.0,-100.00,WSW,250,4.0,9.0,38,0.00,,,0.00,881.000000,,2013-07-20 19:05:00,
2013-07-20 14:35:00,82.0,54.0,-100.00,WSW,250,4.0,9.0,38,0.00,,,0.00,881.000000,,2013-07-20 19:35:00,
2013-07-20 14:44:00,82.0,54.0,-100.00,WSW,250,4.0,9.0,38,0.00,,,0.00,881.000000,,2013-07-20 19:44:00,
2013-07-20 14:56:00,82.0,54.0,-100.00,WSW,250,4.0,9.0,38,0.00,,,0.00,881.000000,,2013-07-20 19:56:00,
2013-07-20 15:05:00,83.0,55.0,-100.00,SE,133,2.0,11.0,39,0.00,,,0.00,762.000000,,2013-07-20 20:05:00,
2013-07-20 15:35:00,83.0,55.0,-100.00,SE,133,2.0,11.0,39,0.00,,,0.00,762.000000,,2013-07-20 20:35:00,
2013-07-20 15:47:00,83.0,55.0,-100.00,SE,133,2.0,11.0,39,0.00,,,0.00,762.000000,,2013-07-20 20:47:00,
2013-07-20 15:58:00,83.0,55.0,-100.00,SE,133,2.0,11.0,39,0.00,,,0.00,762.000000,,2013-07-20 20:58:00,
2013-07-20 16:05:00,80.0,56.0,-100.00,West,260,2.0,9.0,44,0.00,,,0.00,630.000000,,2013-07-20 21:05:00,
2013-07-20 16:36:00,80.0,56.0,-100.00,West,260,2.0,9.0,44,0.00,,,0.00,630.000000,,2013-07-20 21:36:00,
2013-07-20 16:48:00,80.0,56.0,-100.00,West,260,2.0,9.0,44,0.00,,,0.00,630.000000,,2013-07-20 21:48:00,
2013-07-20 16:56:00,80.0,56.0,-100.00,West,260,2.0,9.0,44,0.00,,,0.00,630.000000,,2013-07-20 21:56:00,
2013-07-20 17:37:00,79.0,57.0,-100.00,SW,224,4.0,7.0,47,0.00,,,0.00,506.000000,,2013-07-20 22:37:00,
2013-07-20 17:49:00,79.0,57.0,-100.00,SW,224,4.0,7.0,47,0.00,,,0.00,506.000000,,2013-07-20 22:49:00,
2013-07-20 17:57:00,79.0,57.0,-100.00,SW,224,4.0,7.0,47,0.00,,,0.00,506.000000,,2013-07-20 22:57:00,
2013-07-20 18:04:00,79.0,57.0,-100.00,SW,224,4.0,7.0,47,0.00,,,0.00,506.000000,,2013-07-20 23:04:00,
2013-07-20 18:05:00,78.0,57.0,-100.00,SSW,197,3.0,7.0,48,0.00,,,0.00,264.000000,,2013-07-20 23:05:00,
2013-07-20 18:39:00,78.0,57.0,-100.00,SSW,197,3.0,7.0,48,0.00,,,0.00,264.000000,,2013-07-20 23:39:00,
2013-07-20 18:46:00,78.0,57.0,-100.00,SSW,197,3.0,7.0,48,0.00,,,0.00,264.000000,,2013-07-20 23:46:00,
2013-07-20 18:57:00,78.0,57.0,-100.00,SSW,197,3.0,7.0,48,0.00,,,0.00,264.000000,,2013-07-20 23:57:00,
2013-07-20 19:05:00,77.0,57.0,-100.00,SSW,205,3.0,10.0,51,0.00,,,0.00,253.000000,,2013-07-21 00:05:00,
2013-07-20 19:45:00,77.0,57.0,-100.00,SSW,205,3.0,10.0,51,0.00,,,0.00,253.000000,,2013-07-21 00:45:00,
2013-07-20 19:56:00,77.0,57.0,-100.00,SSW,205,3.0,10.0,51,0.00,,,0.00,253.000000,,2013-07-21 00:56:00,
2013-07-20 20:05:00,74.0,57.0,-100.00,SSW,193,3.0,8.0,55,0.00,,,0.00,126.000000,,2013-07-21 01:05:00,
2013-07-20 20:49:00,-999.0,-99.9,-100.00,SSW,193,3.0,8.0,-999,-99.99,,,-99.99,126.000000,,2013-07-21 01:49:00,
2013-07-20 20:59:00,74.0,57.0,-100.00,SSW,193,3.0,8.0,55,0.00,,,0.00,126.000000,,2013-07-21 01:59:00,
2013-07-20 21:38:00,68.0,55.0,-100.00,SW,227,2.0,10.0,63,0.00,,,0.00,10.000000,,2013-07-21 02:38:00,
2013-07-20 21:46:00,68.0,55.0,-100.00,SW,227,2.0,10.0,63,0.00,,,0.00,10.000000,,2013-07-21 02:46:00,
2013-07-20 21:58:00,68.0,55.0,-100.00,SW,227,2.0,10.0,63,0.00,,,0.00,10.000000,,2013-07-21 02:58:00,
2013-07-20 22:04:00,68.0,55.0,-100.00,SW,227,2.0,10.0,63,0.00,,,0.00,10.000000,,2013-07-21 03:04:00,
2013-07-20 22:37:00,67.0,55.0,-100.00,WSW,244,1.0,5.0,65,0.00,,,0.00,0.000000,,2013-07-21 03:37:00,
2013-07-20 22:47:00,67.0,55.0,-100.00,WSW,244,1.0,5.0,65,0.00,,,0.00,0.000000,,2013-07-21 03:47:00,
2013-07-20 23:00:00,67.0,55.0,-100.00,WSW,244,1.0,5.0,65,0.00,,,0.00,0.000000,,2013-07-21 04:00:00,
2013-07-20 23:01:00,67.0,55.0,-100.00,WSW,244,1.0,5.0,65,0.00,,,0.00,0.000000,,2013-07-21 04:01:00,
2013-07-20 23:32:00,67.0,56.0,-100.00,SSE,162,3.0,6.0,67,0.00,,,0.00,0.000000,,2013-07-21 04:32:00,
2013-07-20 23:43:00,67.0,56.0,-100.00,SSE,162,3.0,6.0,67,0.00,,,0.00,0.000000,,2013-07-21 04:43:00,
2013-07-20 23:53:00,67.0,56.0,-100.00,SSE,162,3.0,6.0,67,0.00,,,0.00,0.000000,,2013-07-21 04:53:00,